Lawrenceville, IL

12:06 PM CDT on June 29, 2017 (GMT -0500)
Lawrenceville-Vincennes International

Weather History for KLWV - September, 2013

Change the Weather History Date:

Thursday, September 12, 2013

  Actual Average Record
Temperature  
Mean Temperature 73 °F 71 °F  
Max Temperature 82 °F 84 °F 91 °F (1999)
Min Temperature 64 °F 59 °F 46 °F (1993)
Degree Days  
Heating Degree Days 0 0  
Month to date heating degree days 0 0  
Since 1 July heating degree days 5 1  
Cooling Degree Days 8 6  
Month to date cooling degree days 136 95  
Year to date cooling degree days 1191 1278  
Growing Degree Days 25 (Base 50)    
Moisture  
Dew Point 66 °F    
Average Humidity 76    
Maximum Humidity 100    
Minimum Humidity 51    
Precipitation  
Precipitation 0.10 in 0.13 in 3.05 in (2008)
Month to date precipitation 0.12 1.29  
Year to date precipitation 41.76 30.64  
Sea Level Pressure  
Sea Level Pressure 30.00 in    
Wind  
Wind Speed 7 mph (WNW)    
Max Wind Speed 15 mph    
Max Gust Speed 18 mph    
Visibility 7 miles    
Events Rain    
T = Trace of Precipitation, MM = Missing Value Source: NWS Daily Summary

Daily Weather History Graph

Daily Weather History Graph

Search for Another Location

Airport or City:

Trip Planner

Search our weather history database for the weather conditions in past years. The results will help you decide how hot, cold, wet, or windy it might be!

Date:

Astronomy

Sep. 12, 2013 Rise Set
Actual Time 6:29 AM CDT 7:03 PM CDT
Civil Twilight 6:02 AM CDT 7:29 PM CDT
Nautical Twilight 5:31 AM CDT 8:01 PM CDT
Astronomical Twilight 4:58 AM CDT 8:33 PM CDT
Moon 1:52 PM CDT (9/12) No Moon Set
Length of Visible Light 13h 27m
Length of Day
12h 33m
Waxing Crescent, 50% of the Moon is Illuminated
Sep 12
Waxing Crescent
Sep 12
First Quarter
Sep 19
Full
Sep 26
Last Quarter
Oct 4
New

Hourly Weather History & Observations

Time (CDT) Temp. Heat Index Dew Point Humidity Pressure Visibility Wind Dir Wind Speed Gust Speed Precip Events Conditions
12:53 AM 78.1 °F - 73.0 °F 84% 30.02 in 4.0 mi WSW 6.9 mph - N/A   Haze
1:53 AM 73.0 °F - 71.1 °F 93% 30.01 in 4.0 mi South 4.6 mph - N/A   Clear
2:53 AM 72.0 °F - 71.1 °F 97% 30.00 in 3.0 mi South 6.9 mph - N/A   Clear
3:53 AM 71.1 °F - 70.0 °F 96% 29.99 in 3.0 mi South 5.8 mph - N/A   Clear
4:53 AM 72.0 °F - 70.0 °F 93% 29.99 in 3.0 mi Calm Calm - N/A   Mostly Cloudy
5:53 AM 75.0 °F - 71.1 °F 87% 30.00 in 5.0 mi WSW 6.9 mph - N/A   Scattered Clouds
6:53 AM 73.0 °F - 70.0 °F 90% 30.02 in 4.0 mi NW 4.6 mph - N/A   Clear
7:53 AM 75.0 °F - 71.1 °F 87% 30.03 in 3.0 mi WNW 4.6 mph - N/A   Scattered Clouds
8:53 AM 75.9 °F - 70.0 °F 82% 30.06 in 6.0 mi North 10.4 mph - N/A   Haze
9:25 AM 73.4 °F - 69.8 °F 88% 30.08 in 1.8 mi NNW 9.2 mph - 0.03 in Rain Rain
9:41 AM 73.4 °F - 71.6 °F 94% 30.06 in 3.0 mi NNE 5.8 mph - 0.09 in Rain Light Rain
9:53 AM 73.0 °F - 71.1 °F 93% 30.05 in 6.0 mi NE 5.8 mph - 0.09 in   Mostly Cloudy
10:53 AM 75.0 °F - 69.1 °F 82% 30.04 in 7.0 mi NW 4.6 mph - 0.00 in   Mostly Cloudy
11:53 AM 75.9 °F - 69.1 °F 79% 30.03 in 8.0 mi West 4.6 mph - N/A   Partly Cloudy
12:53 PM 77.0 °F - 69.1 °F 76% 30.01 in 8.0 mi West 4.6 mph - N/A   Scattered Clouds
1:53 PM 78.1 °F - 66.9 °F 68% 30.01 in 10.0 mi West 6.9 mph - 0.01 in   Partly Cloudy
2:53 PM 79.0 °F - 66.9 °F 66% 29.99 in 10.0 mi WNW 8.1 mph - N/A   Clear
3:53 PM 81.0 °F 82.5 °F 64.0 °F 56% 29.96 in 10.0 mi West 9.2 mph - N/A   Clear
4:53 PM 82.0 °F 83.0 °F 62.1 °F 51% 29.94 in 10.0 mi West 11.5 mph - N/A   Clear
5:53 PM 81.0 °F 82.2 °F 63.0 °F 54% 29.94 in 10.0 mi West 6.9 mph - N/A   Clear
6:53 PM 77.0 °F - 63.0 °F 62% 29.94 in 10.0 mi West 4.6 mph - N/A   Clear
7:53 PM 75.0 °F - 63.0 °F 66% 29.95 in 10.0 mi West 5.8 mph - N/A   Clear
8:53 PM 73.0 °F - 59.0 °F 61% 29.98 in 10.0 mi NNW 10.4 mph - N/A   Clear
9:53 PM 68.0 °F - 54.0 °F 61% 29.99 in 10.0 mi NNW 6.9 mph - N/A   Clear
10:53 PM 68.0 °F - 52.0 °F 56% 30.01 in 10.0 mi North 11.5 mph - N/A   Clear
11:53 PM 66.0 °F - 53.1 °F 63% 30.01 in 10.0 mi North 11.5 mph - N/A   Clear